When you browse on this site, cookies collect data to enhance your experience and personalize the content and advertising you see.
Visit our Privacy Policy to learn more. By continuing to use the site, you agree to this use of cookies and data.
  • In United Kingdom
  • List of Countries
  • For 7 days
  • Water Temperature
  • Weather Map
  • Weather Widgets
  • user-avatar
    Login

    Hourly Weather Sheffield

    Today, 20 September, Friday

    Time Temperature Precipitation Wind Pressure Humidity
    00:00 +14°C° 0 mm 1 mps 764 mmHg 79%
    01:00 +14°C° 0 mm 1 mps 764 mmHg 80%
    02:00 +13°C° 0 mm 1 mps 763 mmHg 81%
    03:00 +13°C° 0 mm 1 mps 763 mmHg 82%
    04:00 +13°C° 0 mm 1 mps 763 mmHg 83%
    05:00 +13°C° 0 mm 1 mps 762 mmHg 84%
    06:00 +12°C° 0 mm 1 mps 762 mmHg 85%
    07:00 +14°C° 0 mm 2 mps 762 mmHg 80%
    08:00 +15°C° 0 mm 2 mps 762 mmHg 76%
    09:00 +17°C° 0 mm 2 mps 762 mmHg 71%
    10:00 +18°C° 0 mm 3 mps 762 mmHg 68%
    11:00 +19°C° 0 mm 3 mps 761 mmHg 65%
    12:00 +20°C° 0 mm 3 mps 761 mmHg 62%
    13:00 +20°C° 0 mm 4 mps 760 mmHg 62%
    14:00 +20°C° 0 mm 4 mps 760 mmHg 62%
    15:00 +21°C° 0 mm 4 mps 759 mmHg 62%
    16:00 +19°C° 0 mm 4 mps 759 mmHg 66%
    17:00 +18°C° 0 mm 4 mps 758 mmHg 71%
    18:00 +17°C° 0 mm 4 mps 758 mmHg 75%
    19:00 +15°C° 0 mm 4 mps 757 mmHg 76%
    20:00 +14°C° 0 mm 4 mps 757 mmHg 78%
    21:00 +13°C° 0 mm 4 mps 757 mmHg 79%
    22:00 +13°C° 0 mm 4 mps 757 mmHg 80%
    23:00 +12°C° 0 mm 3 mps 756 mmHg 81%

    Tomorrow, 21 September, Saturday

    Time Temperature Precipitation Wind Pressure Humidity
    00:00 +11°C° 0 mm 3 mps 756 mmHg 82%
    01:00 +11°C° 0 mm 3 mps 755 mmHg 83%
    02:00 +11°C° 0 mm 3 mps 755 mmHg 84%
    03:00 +11°C° 0 mm 3 mps 754 mmHg 85%
    04:00 +11°C° 0 mm 3 mps 754 mmHg 85%
    05:00 +11°C° 0 mm 3 mps 753 mmHg 84%
    06:00 +11°C° 0 mm 3 mps 753 mmHg 84%
    07:00 +12°C° 0 mm 4 mps 753 mmHg 77%
    08:00 +14°C° 0 mm 4 mps 752 mmHg 71%
    09:00 +15°C° 0 mm 5 mps 752 mmHg 64%
    10:00 +16°C° 0 mm 5 mps 752 mmHg 60%
    11:00 +19°C° 0 mm 5 mps 751 mmHg 56%
    12:00 +20°C° 0 mm 5 mps 751 mmHg 51%
    13:00 +21°C° 0 mm 5 mps 750 mmHg 51%
    14:00 +21°C° 0 mm 5 mps 750 mmHg 51%
    15:00 +22°C° 0 mm 5 mps 749 mmHg 50%
    16:00 +20°C° 0 mm 4 mps 749 mmHg 55%
    17:00 +19°C° 0 mm 4 mps 749 mmHg 60%
    18:00 +18°C° 0 mm 4 mps 748 mmHg 64%
    19:00 +17°C° 0 mm 3 mps 748 mmHg 67%
    20:00 +16°C° 0 mm 3 mps 748 mmHg 71%
    21:00 +15°C° 0 mm 2 mps 748 mmHg 74%
    22:00 +15°C° 0 mm 2 mps 748 mmHg 75%
    23:00 +15°C° 0 mm 2 mps 747 mmHg 76%

    Day after tomorrow, 22 September, Sunday

    Time Temperature Precipitation Wind Pressure Humidity
    00:00 +15°C° 0 mm 2 mps 747 mmHg 77%
    01:00 +14°C° 0 mm 1 mps 746 mmHg 79%
    02:00 +14°C° 0 mm 1 mps 746 mmHg 81%
    03:00 +14°C° 0 mm 1 mps 745 mmHg 83%
    04:00 +14°C° 0 mm 1 mps 745 mmHg 85%
    05:00 +14°C° 0 mm 1 mps 745 mmHg 88%
    06:00 +14°C° 0 mm 1 mps 745 mmHg 90%
    07:00 +16°C° 0 mm 2 mps 744 mmHg 86%
    08:00 +17°C° 0 mm 2 mps 744 mmHg 82%
    09:00 +19°C° 0 mm 2 mps 744 mmHg 78%
    10:00 +20°C° 0 mm 2 mps 744 mmHg 75%
    11:00 +21°C° 0 mm 3 mps 744 mmHg 72%
    12:00 +22°C° 0 mm 3 mps 744 mmHg 69%
    13:00 +22°C° 0.2 mm 4 mps 744 mmHg 71%
    14:00 +22°C° 0.2 mm 4 mps 744 mmHg 74%
    15:00 +21°C° 0.2 mm 4 mps 743 mmHg 76%
    16:00 +20°C° 0.1 mm 4 mps 744 mmHg 78%
    17:00 +19°C° 0.1 mm 3 mps 744 mmHg 79%
    18:00 +18°C° 0.1 mm 3 mps 744 mmHg 80%
    19:00 +18°C° 0 mm 3 mps 744 mmHg 81%
    20:00 +18°C° 0 mm 3 mps 745 mmHg 81%
    21:00 +17°C° 0 mm 3 mps 745 mmHg 82%
    22:00 +17°C° 0.1 mm 3 mps 745 mmHg 82%
    23:00 +17°C° 0.1 mm 2 mps 745 mmHg 82%

    23 September, Monday

    Time Temperature Precipitation Wind Pressure Humidity
    00:00 +16°C° 0.1 mm 2 mps 746 mmHg 82%
    01:00 +16°C° 0.3 mm 2 mps 746 mmHg 84%
    02:00 +15°C° 0.3 mm 2 mps 746 mmHg 86%
    03:00 +15°C° 0.3 mm 1 mps 746 mmHg 87%
    04:00 +14°C° 0 mm 2 mps 747 mmHg 88%
    05:00 +14°C° 0 mm 2 mps 747 mmHg 88%
    06:00 +14°C° 0 mm 2 mps 747 mmHg 88%
    07:00 +14°C° 0 mm 2 mps 747 mmHg 84%
    08:00 +14°C° 0 mm 3 mps 747 mmHg 80%
    09:00 +16°C° 0 mm 3 mps 748 mmHg 76%
    10:00 +17°C° 0 mm 3 mps 748 mmHg 71%
    11:00 +18°C° 0 mm 3 mps 748 mmHg 66%
    12:00 +19°C° 0 mm 3 mps 748 mmHg 61%
    13:00 +19°C° 0 mm 3 mps 748 mmHg 60%
    14:00 +19°C° 0 mm 3 mps 748 mmHg 58%
    15:00 +19°C° 0 mm 3 mps 748 mmHg 56%
    16:00 +18°C° 0 mm 3 mps 748 mmHg 62%
    17:00 +17°C° 0 mm 3 mps 748 mmHg 67%
    18:00 +16°C° 0 mm 3 mps 748 mmHg 72%
    19:00 +16°C° 0 mm 3 mps 748 mmHg 74%
    20:00 +16°C° 0 mm 3 mps 748 mmHg 75%
    21:00 +16°C° 0 mm 3 mps 748 mmHg 76%
    22:00 +16°C° 0 mm 3 mps 748 mmHg 80%
    23:00 +15°C° 0 mm 4 mps 748 mmHg 84%

    24 September, Tuesday

    Time Temperature Precipitation Wind Pressure Humidity
    00:00 +14°C° 0 mm 4 mps 748 mmHg 89%
    01:00 +15°C° 0 mm 4 mps 748 mmHg 89%
    02:00 +16°C° 0 mm 3 mps 747 mmHg 90%
    03:00 +16°C° 0 mm 3 mps 747 mmHg 90%
    04:00 +16°C° 0 mm 3 mps 747 mmHg 92%
    05:00 +16°C° 0 mm 3 mps 747 mmHg 93%
    06:00 +16°C° 0 mm 2 mps 747 mmHg 94%
    07:00 +17°C° 0 mm 3 mps 746 mmHg 93%
    08:00 +17°C° 0 mm 3 mps 746 mmHg 91%
    09:00 +18°C° 0 mm 3 mps 746 mmHg 89%
    10:00 +18°C° 0 mm 3 mps 746 mmHg 86%
    11:00 +19°C° 0 mm 3 mps 745 mmHg 83%
    12:00 +19°C° 0 mm 3 mps 745 mmHg 80%
    13:00 +20°C° 0.3 mm 4 mps 744 mmHg 79%
    14:00 +20°C° 0.3 mm 4 mps 743 mmHg 77%
    15:00 +20°C° 0.3 mm 5 mps 742 mmHg 75%
    16:00 +19°C° 1.7 mm 5 mps 741 mmHg 79%
    17:00 +17°C° 1.7 mm 5 mps 740 mmHg 83%
    18:00 +17°C° 1.7 mm 4 mps 739 mmHg 87%
    19:00 +16°C° 3.1 mm 5 mps 739 mmHg 89%
    20:00 +16°C° 3.1 mm 5 mps 739 mmHg 91%
    21:00 +15°C° 3.1 mm 5 mps 738 mmHg 93%
    22:00 +15°C° 1.6 mm 6 mps 738 mmHg 91%
    23:00 +15°C° 1.6 mm 7 mps 738 mmHg 89%

    25 September, Wednesday

    Time Temperature Precipitation Wind Pressure Humidity
    00:00 +13°C° 1.6 mm 8 mps 738 mmHg 86%
    01:00 +14°C° 0.5 mm 7 mps 737 mmHg 87%
    02:00 +14°C° 0.5 mm 6 mps 737 mmHg 88%
    03:00 +14°C° 0.5 mm 5 mps 737 mmHg 88%
    04:00 +14°C° 0.1 mm 5 mps 737 mmHg 89%
    05:00 +14°C° 0.1 mm 5 mps 736 mmHg 89%
    06:00 +14°C° 0.1 mm 5 mps 736 mmHg 90%
    07:00 +15°C° 0 mm 5 mps 736 mmHg 87%
    08:00 +16°C° 0 mm 5 mps 736 mmHg 84%
    09:00 +16°C° 0 mm 5 mps 736 mmHg 82%
    10:00 +17°C° 0.4 mm 5 mps 736 mmHg 80%
    11:00 +18°C° 0.4 mm 4 mps 736 mmHg 78%
    12:00 +19°C° 0.4 mm 3 mps 736 mmHg 77%
    13:00 +18°C° 0.4 mm 4 mps 736 mmHg 76%
    14:00 +17°C° 0.4 mm 5 mps 736 mmHg 75%
    15:00 +17°C° 0.4 mm 5 mps 736 mmHg 75%
    16:00 +16°C° 0.1 mm 5 mps 736 mmHg 76%
    17:00 +16°C° 0.1 mm 5 mps 737 mmHg 77%
    18:00 +15°C° 0.1 mm 5 mps 737 mmHg 78%
    19:00 +14°C° 0 mm 5 mps 737 mmHg 81%
    20:00 +14°C° 0 mm 5 mps 738 mmHg 83%
    21:00 +13°C° 0 mm 5 mps 738 mmHg 86%
    22:00 +13°C° 0 mm 4 mps 737 mmHg 87%
    23:00 +13°C° 0 mm 4 mps 737 mmHg 88%
    Show more